Wind_Speed
43 47 52 55 57 62 60 59 58 44 43 46 50 49 48 50 55 56 55 53 55 55 54 56 51 53 42 36 33 28 19 11 19 62 68 74 80 82 85 87 87 85 84 83
44 46 48 55 55 58 59 61 58 61 45 46 46 44 43 43 45 47 50 51 48 48 51 48 46 46 42 44 34 25 21 16 10 18 39 62 71 74 76 78 81 81 82 81
46 45 48 52 54 57 59 58 62 54 52 53 44 40 40 37 44 41 42 45 46 43 42 41 42 38 40 36 33 32 26 15 9 6 7 16 33 44 52 58 62 67 68 69
50 50 50 51 56 56 60 59 61 57 57 56 53 36 35 34 37 37 39 37 37 39 37 36 34 35 35 28 31 28 23 21 18 11 2 8 12 17 22 28 32 37 48 45
51 51 51 52 54 55 59 62 66 60 56 53 53 42 36 34 36 33 34 37 33 31 34 32 28 30 29 28 23 23 20 18 14 11 8 6 2 7 18 24 27 29 31 38
54 56 54 54 55 54 59 62 62 59 63 59 55 48 37 39 44 38 44 36 33 36 36 33 29 28 28 26 23 23 16 9 11 12 13 12 9 5 6 7 10 15 19 23
58 57 59 58 59 60 60 61 59 57 54 55 59 49 37 39 45 45 43 41 42 42 43 48 45 39 32 26 28 27 26 18 14 12 11 13 14 16 16 15 14 15 14 14
66 61 62 61 61 63 63 62 56 55 55 58 58 55 50 50 48 41 41 44 42 44 48 47 48 48 47 43 34 30 26 29 23 23 21 24 20 18 20 21 23 26 25 24
71 69 65 65 66 67 64 65 59 58 62 66 62 57 56 55 52 49 51 47 46 43 49 50 49 47 47 45 45 44 36 31 32 31 32 30 31 31 27 28 30 32 31 31
78 74 75 74 71 69 69 67 66 62 65 66 75 67 62 62 59 54 55 52 54 46 47 49 50 48 52 51 50 50 45 44 41 39 36 37 38 38 39 39 39 38 40 43
83 82 77 78 78 76 74 73 69 68 73 69 78 72 76 72 63 65 61 65 66 60 51 52 52 54 58 57 54 54 53 49 49 48 46 42 43 43 47 51 50 48 51 52
87 87 85 83 86 82 82 78 77 75 71 81 81 85 84 74 70 71 66 68 69 76 70 65 60 57 61 64 63 63 59 59 55 54 53 55 54 51 53 54 56 58 56 56
92 92 91 91 91 90 89 87 84 85 85 81 83 86 90 88 86 79 71 74 71 70 72 67 66 61 65 67 68 69 69 70 67 61 62 60 62 63 64 64 64 67 67 64
100 99 97 98 96 97 94 93 94 95 95 92 94 92 89 88 85 81 81 80 78 78 74 75 72 73 70 72 71 72 77 79 79 74 73 71 73 72 73 74 75 74 76 75
110 107 105 105 103 100 100 100 101 104 102 103 98 96 98 95 88 90 89 90 89 88 83 82 82 81 81 81 76 78 84 84 85 85 82 80 78 78 81 80 80 82 82 80
115 110 106 105 107 108 109 112 113 115 114 107 103 97 95 91 92 93 96 99 104 98 90 87 86 91 91 87 84 84 89 95 93 89 90 89 87 84 83 85 89 90 91 91
119 117 115 115 117 121 123 121 121 120 119 116 111 102 92 94 100 102 103 103 105 99 95 90 91 92 96 94 94 96 98 104 97 94 93 92 90 89 88 88 92 92 93 93
129 126 125 125 125 129 127 126 127 126 123 123 115 103 100 103 107 109 109 107 104 102 98 91 92 92 92 93 100 102 106 102 98 96 95 94 93 93 91 91 91 91 87 87
140 137 135 134 133 137 132 129 131 129 124 122 116 113 112 111 113 112 109 104 103 100 97 94 91 90 95 98 102 103 98 96 94 94 94 90 90 86 83 84 83 83 85 85
139 145 144 146 139 133 129 131 131 126 124 123 122 120 116 114 107 103 103 101 98 92 89 92 91 90 94 96 96 94 91 90 92 89 83 85 81 83 86 84 82 80 80 83
131 130 135 136 129 129 128 126 125 119 116 113 113 116 118 115 106 99 96 95 96 94 90 91 85 87 93 91 89 88 89 89 89 91 92 88 88 91 86 84 86 85 85 86
126 126 125 126 124 122 120 115 112 111 110 108 110 109 108 109 107 106 104 99 94 92 93 92 90 95 92 91 93 94 93 93 92 92 90 90 88 88 88 87 87 84 84 87
119 121 121 121 118 116 114 116 114 112 112 112 112 109 108 107 107 106 106 102 99 99 95 95 96 94 95 94 94 94 93 92 93 92 90 88 86 87 87 86 86 86 87 89
110 111 114 116 115 114 116 117 115 114 113 114 113 111 108 106 107 106 106 103 102 98 99 100 97 96 94 92 92 91 89 88 88 87 85 86 86 86 84 83 83 84 85 85
103 103 105 104 107 109 110 113 112 111 111 110 110 109 107 106 106 105 106 104 100 99 99 96 95 94 92 91 89 89 89 89 89 87 85 85 83 81 80 80 79 78 76 76
97 97 98 99 99 100 101 102 103 105 106 106 103 102 102 102 101 101 102 101 101 98 95 92 91 90 89 88 89 88 87 86 84 83 81 81 82 80 79 79 79 77 74 72
87 93 94 94 94 95 97 97 98 99 97 97 95 95 97 96 96 96 95 95 94 92 91 90 88 86 86 86 85 84 82 81 81 82 83 83 83 81 79 77 79 77 76 75
Wind_Direction
347 350 355 358 4 3 1 4 7 348 350 354 357 4 8 6 7 8 18 27 33 35 37 40 44 48 50 54 57 62 77 130 210 223 223 225 229 231 234 237 240 244 248 253
339 340 346 348 353 359 360 358 356 359 345 340 347 357 5 5 4 7 8 13 23 28 31 38 38 41 46 51 53 56 62 68 104 189 220 233 237 240 241 243 246 249 253 256
327 330 334 338 342 348 353 354 358 357 2 358 349 350 352 3 4 2 2 5 8 15 24 25 30 37 36 36 43 51 55 58 67 97 179 211 226 234 240 245 249 251 256 256
318 320 325 329 334 339 346 350 349 351 353 354 354 346 348 356 356 1 3 3 3 1 8 14 15 18 27 32 31 28 31 43 59 64 214 225 228 232 234 237 239 241 246 251
310 313 315 319 324 330 335 342 343 344 349 348 350 345 339 344 351 358 358 360 356 352 353 357 1 359 1 5 18 17 20 16 12 20 37 51 49 252 249 250 250 252 255 256
303 306 309 309 316 319 324 333 335 338 340 342 344 343 336 332 341 340 341 339 350 351 350 349 343 339 340 341 340 348 357 2 360 347 329 320 314 296 281 273 264 260 259 262
296 300 304 306 309 312 315 322 324 329 331 333 336 334 331 336 338 335 338 335 335 336 338 337 337 343 336 323 321 320 322 325 315 309 292 309 302 290 281 263 254 262 261 253
291 295 297 300 301 304 309 310 316 318 322 326 328 329 327 324 324 319 325 330 339 332 333 327 325 330 331 330 328 310 303 303 299 291 291 293 281 283 284 284 277 267 264 259
286 288 290 293 297 297 302 303 303 309 312 316 321 321 319 318 313 312 317 317 321 320 322 320 320 319 324 321 322 323 317 295 283 285 287 281 278 278 273 276 270 267 274 269
283 285 285 291 292 293 292 297 297 297 304 308 312 313 313 314 309 305 308 306 309 305 307 310 310 314 311 315 312 316 313 312 299 289 280 278 276 270 271 275 273 270 265 262
280 281 282 285 286 288 290 289 293 295 293 302 305 309 306 306 303 306 303 311 308 304 297 303 297 297 301 303 304 303 306 307 305 298 292 280 271 270 267 271 277 274 271 271
278 279 279 282 284 285 287 283 286 289 287 295 300 302 304 301 302 301 297 301 301 309 299 298 301 290 292 295 294 297 296 298 297 292 286 285 280 271 269 266 266 269 270 269
278 278 278 280 279 283 282 285 281 287 291 292 294 300 299 299 298 299 292 296 290 292 294 288 290 287 284 288 290 293 296 292 292 288 286 281 275 272 271 270 268 267 270 270
275 274 275 278 280 277 281 280 284 286 289 290 291 294 294 295 292 292 292 291 291 291 286 280 279 287 279 285 286 288 287 288 290 287 285 285 281 274 270 270 270 268 266 267
272 273 274 275 275 276 276 279 281 283 285 287 289 291 291 291 286 289 289 288 290 288 284 282 276 276 280 279 286 283 285 288 285 285 283 281 282 280 273 272 270 270 269 267
271 272 270 272 273 274 273 278 280 282 283 284 285 286 287 283 282 282 287 288 289 288 284 279 277 274 278 279 286 283 283 289 288 282 281 279 277 277 273 273 273 270 267 265
269 269 269 269 273 274 275 278 280 281 281 281 282 282 279 276 278 281 285 286 286 284 281 280 277 276 277 278 281 282 279 287 285 282 280 279 275 274 274 273 272 272 272 271
267 266 268 268 271 273 274 277 277 277 277 279 280 278 276 274 277 280 282 283 283 282 280 279 277 278 277 277 277 278 280 283 282 280 280 280 278 277 278 280 279 276 274 275
266 264 264 265 267 268 268 270 271 272 273 275 276 276 275 276 277 278 278 278 278 278 279 278 276 276 278 277 277 278 278 280 280 280 280 281 281 280 280 280 279 280 278 279
264 263 261 261 264 263 266 268 268 270 270 274 274 274 274 274 273 273 274 274 274 275 275 275 275 276 276 275 275 277 277 277 277 277 278 282 279 278 280 277 278 277 277 276
258 260 260 262 264 264 265 264 265 268 269 272 273 274 272 274 273 274 274 272 272 274 274 274 274 276 276 277 277 279 279 278 277 277 280 280 278 279 277 278 278 277 276 277
256 258 257 258 261 262 263 263 263 266 266 266 266 267 270 272 272 273 274 274 274 275 275 275 276 275 276 277 277 278 278 278 279 279 279 279 279 279 280 280 279 278 277 276
256 256 256 257 259 259 260 261 262 263 263 265 265 265 266 268 269 271 272 274 274 275 276 276 275 276 276 276 277 278 279 279 280 280 281 281 279 279 280 279 279 279 278 277
252 255 257 257 258 259 259 260 261 262 264 265 267 267 267 267 269 270 271 272 273 275 275 275 276 277 278 278 278 278 279 280 282 282 282 282 282 282 282 281 280 280 279 278
252 253 255 256 257 259 259 260 262 263 264 265 266 266 267 268 269 270 271 272 273 273 273 276 277 279 279 280 280 281 281 281 281 281 281 282 283 283 283 283 281 281 280 280
251 252 253 255 256 259 261 261 262 263 264 264 265 266 268 269 270 270 271 272 272 273 275 276 276 277 278 279 279 279 279 281 282 283 283 283 283 282 281 281 282 283 283 281
251 253 254 255 256 258 260 260 261 263 263 264 266 267 267 269 271 270 270 271 273 273 274 275 276 277 277 277 278 279 280 283 283 283 283 282 281 282 283 283 283 283 283 282
Height
10676 10673 10669 10666 10660 10655 10650 10646 10642 10636 10631 10626 10621 10617 10613 10607 10602 10597 10592 10587 10583 10578 10573 10570 10567 10563 10560 10559 10559 10560 10562 10566 10574 10584 10587 10594 10600 10606 10612 10619 10626 10631 10635 10638
10672 10670 10666 10663 10660 10655 10651 10647 10642 10638 10633 10629 10624 10621 10617 10613 10608 10603 10599 10596 10592 10588 10585 10583 10580 10577 10575 10573 10571 10571 10572 10574 10577 10580 10588 10595 10602 10606 10611 10617 10622 10626 10626 10627
10666 10665 10663 10660 10658 10655 10651 10647 10643 10637 10633 10629 10626 10621 10618 10616 10612 10609 10605 10602 10598 10596 10595 10593 10590 10588 10586 10584 10583 10582 10581 10581 10583 10585 10588 10591 10595 10599 10603 10607 10610 10610 10613 10609
10660 10659 10657 10655 10652 10650 10648 10645 10640 10638 10634 10629 10625 10622 10619 10617 10613 10610 10608 10606 10603 10601 10598 10598 10596 10595 10594 10593 10592 10590 10589 10589 10588 10588 10588 10590 10592 10594 10596 10596 10598 10599 10594 10596
10653 10651 10650 10649 10647 10646 10643 10641 10639 10634 10632 10629 10625 10622 10619 10616 10615 10612 10609 10607 10606 10604 10602 10600 10599 10597 10597 10597 10597 10595 10594 10593 10592 10591 10590 10589 10589 10589 10589 10590 10589 10589 10589 10583
10644 10643 10642 10641 10639 10639 10636 10634 10633 10632 10628 10625 10623 10620 10616 10614 10612 10611 10610 10606 10605 10603 10602 10601 10599 10598 10596 10595 10594 10595 10595 10594 10594 10592 10590 10589 10587 10586 10585 10584 10583 10582 10580 10579
10633 10633 10632 10631 10630 10629 10629 10627 10625 10625 10622 10619 10618 10615 10613 10611 10609 10606 10606 10605 10601 10599 10598 10596 10595 10594 10594 10592 10590 10590 10590 10590 10589 10589 10588 10588 10586 10584 10582 10580 10578 10576 10575 10573
10619 10620 10620 10620 10619 10619 10619 10619 10616 10614 10614 10612 10609 10607 10605 10603 10602 10599 10595 10595 10596 10594 10592 10590 10588 10587 10586 10585 10584 10583 10581 10582 10583 10581 10582 10580 10579 10579 10577 10576 10573 10570 10569 10567
10605 10606 10607 10607 10607 10606 10606 10607 10607 10604 10604 10603 10602 10600 10597 10595 10591 10589 10589 10587 10585 10585 10584 10581 10581 10580 10578 10577 10575 10574 10574 10573 10571 10571 10571 10571 10568 10567 10566 10565 10564 10561 10560 10559
10589 10589 10590 10591 10592 10593 10593 10593 10592 10592 10592 10591 10590 10589 10588 10587 10584 10581 10578 10578 10576 10574 10574 10573 10570 10569 10567 10566 10564 10563 10562 10561 10559 10558 10558 10558 10555 10554 10553 10553 10551 10548 10545 10544
10572 10573 10572 10574 10574 10576 10576 10577 10577 10576 10577 10576 10575 10575 10575 10574 10572 10570 10568 10565 10563 10564 10561 10561 10559 10558 10554 10553 10552 10550 10548 10547 10545 10544 10543 10541 10539 10538 10538 10537 10535 10533 10531 10529
10552 10553 10553 10555 10554 10557 10558 10559 10560 10560 10560 10559 10557 10557 10558 10556 10555 10554 10551 10550 10548 10547 10545 10545 10545 10544 10541 10539 10537 10533 10533 10531 10531 10528 10526 10525 10524 10522 10519 10518 10517 10516 10513 10511
10527 10530 10532 10533 10534 10535 10536 10537 10538 10541 10542 10540 10539 10537 10539 10536 10535 10534 10532 10530 10530 10528 10526 10525 10525 10524 10524 10523 10521 10517 10513 10511 10511 10510 10508 10507 10506 10503 10501 10499 10496 10494 10493 10491
10504 10505 10508 10509 10511 10511 10511 10513 10515 10516 10519 10519 10518 10519 10518 10517 10514 10513 10512 10508 10508 10508 10507 10506 10504 10502 10503 10502 10502 10501 10492 10488 10488 10489 10485 10486 10484 10481 10479 10478 10475 10471 10468 10466
10478 10482 10482 10483 10483 10483 10483 10484 10488 10490 10494 10498 10497 10496 10496 10495 10494 10490 10488 10486 10485 10484 10484 10483 10481 10481 10476 10480 10483 10481 10464 10463 10464 10466 10461 10460 10459 10457 10455 10451 10449 10448 10446 10442
10448 10451 10453 10453 10453 10454 10453 10455 10460 10463 10465 10471 10472 10473 10472 10470 10468 10465 10462 10460 10458 10457 10457 10457 10459 10454 10450 10458 10462 10455 10437 10434 10435 10437 10435 10434 10431 10428 10426 10424 10422 10418 10416 10415
10419 10420 10424 10426 10426 10425 10422 10426 10432 10432 10433 10436 10441 10449 10451 10444 10440 10436 10432 10430 10431 10431 10432 10433 10430 10427 10423 10432 10437 10423 10414 10407 10406 10405 10404 10403 10401 10400 10396 10394 10391 10388 10386 10384
10388 10390 10391 10391 10392 10394 10397 10395 10393 10400 10401 10402 10409 10422 10424 10419 10413 10409 10403 10400 10400 10402 10402 10406 10402 10399 10399 10407 10397 10388 10383 10381 10378 10375 10374 10372 10370 10369 10367 10366 10361 10358 10357 10354
10354 10357 10360 10363 10367 10367 10368 10367 10368 10367 10368 10373 10385 10387 10389 10390 10384 10380 10378 10375 10372 10374 10376 10374 10373 10375 10374 10367 10359 10357 10357 10354 10350 10346 10343 10342 10340 10340 10338 10335 10333 10328 10325 10323
10312 10316 10323 10326 10331 10337 10340 10337 10338 10337 10340 10346 10353 10353 10350 10350 10352 10351 10349 10348 10348 10351 10352 10344 10347 10350 10340 10331 10328 10329 10329 10326 10322 10318 10316 10316 10314 10312 10308 10306 10305 10302 10299 10296
10274 10283 10287 10292 10297 10300 10305 10308 10315 10318 10319 10321 10321 10313 10310 10311 10316 10320 10319 10316 10318 10321 10324 10318 10324 10320 10306 10305 10303 10302 10299 10297 10295 10293 10290 10286 10284 10283 10279 10278 10275 10273 10270 10266
10238 10247 10253 10255 10261 10263 10269 10281 10284 10287 10288 10293 10288 10285 10285 10283 10282 10282 10286 10287 10288 10290 10292 10289 10292 10284 10282 10280 10276 10272 10269 10267 10266 10263 10261 10259 10256 10253 10249 10244 10240 10239 10238 10231
10203 10209 10216 10222 10227 10231 10243 10250 10253 10248 10252 10256 10259 10259 10259 10258 10256 10255 10254 10254 10256 10256 10260 10259 10254 10254 10254 10250 10247 10244 10241 10237 10232 10231 10231 10227 10223 10221 10217 10212 10207 10206 10203 10196
10169 10176 10183 10188 10195 10201 10208 10212 10215 10219 10221 10223 10225 10228 10230 10228 10226 10227 10225 10226 10227 10229 10229 10223 10223 10225 10224 10222 10218 10214 10210 10208 10205 10202 10199 10193 10191 10188 10185 10182 10178 10174 10171 10168
10138 10148 10151 10160 10163 10167 10173 10177 10181 10186 10189 10192 10194 10196 10198 10197 10198 10199 10195 10194 10196 10196 10194 10197 10197 10195 10191 10189 10186 10183 10180 10177 10172 10170 10168 10164 10160 10158 10154 10146 10144 10141 10144 10143
10112 10119 10124 10127 10133 10139 10143 10147 10151 10155 10158 10160 10164 10167 10169 10168 10168 10169 10166 10165 10162 10165 10169 10170 10168 10166 10164 10160 10155 10152 10149 10147 10145 10142 10140 10136 10130 10128 10126 10120 10115 10115 10117 10115
10087 10089 10093 10102 10107 10113 10116 10120 10123 10127 10131 10133 10137 10139 10136 10138 10140 10136 10135 10133 10136 10138 10139 10139 10139 10138 10136 10132 10128 10126 10126 10123 10118 10114 10109 10105 10100 10099 10099 10097 10091 10090 10088 10084